owner,sensor,date,latitude,longitude,vertical_datum,wind_speed,wind_to_direction,wind_speed_of_gust,qcFlag 
WAVCIS,ioos:station:WAVCIS:CSI03:3,2017-03-01T00:00:00Z,29.4412,-92.0613,10.0,7.48,271.0,,'11111222,11111222,99999999' 
WAVCIS,ioos:station:WAVCIS:CSI03:3,2017-03-01T01:00:00Z,29.4412,-92.0613,10.0,7.44,272.0,,'11111222,11111222,99999999' 
WAVCIS,ioos:station:WAVCIS:CSI03:3,2017-03-01T02:00:00Z,29.4412,-92.0613,10.0,8.28,271.0,,'11111222,11111222,99999999' 
WAVCIS,ioos:station:WAVCIS:CSI03:3,2017-03-01T03:00:00Z,29.4412,-92.0613,10.0,8.1,265.0,,'11111222,11111222,99999999' 
WAVCIS,ioos:station:WAVCIS:CSI03:3,2017-03-01T04:00:00Z,29.4412,-92.0613,10.0,6.649,272.0,,'11111222,11111222,99999999' 
WAVCIS,ioos:station:WAVCIS:CSI03:3,2017-03-01T05:00:00Z,29.4412,-92.0613,10.0,7.65,267.0,,'11111222,11111222,99999999' 
WAVCIS,ioos:station:WAVCIS:CSI03:3,2017-03-01T06:00:00Z,29.4412,-92.0613,10.0,8.08,274.0,,'11111222,11111222,99999999' 
WAVCIS,ioos:station:WAVCIS:CSI03:3,2017-03-01T07:00:00Z,29.4412,-92.0613,10.0,3.8,281.0,,'11111222,11111222,99999999' 
WAVCIS,ioos:station:WAVCIS:CSI03:3,2017-03-01T08:00:00Z,29.4412,-92.0613,10.0,5.722,279.0,,'11111222,11111222,99999999' 
WAVCIS,ioos:station:WAVCIS:CSI03:3,2017-03-01T09:00:00Z,29.4412,-92.0613,10.0,5.615,280.0,,'11111222,11111222,99999999' 
WAVCIS,ioos:station:WAVCIS:CSI03:3,2017-03-01T10:00:00Z,29.4412,-92.0613,10.0,2.875,298.0,,'11111222,11111222,99999999' 
WAVCIS,ioos:station:WAVCIS:CSI03:3,2017-03-01T11:00:00Z,29.4412,-92.0613,10.0,3.447,278.0,,'11111222,11111222,99999999' 
WAVCIS,ioos:station:WAVCIS:CSI03:3,2017-03-01T12:00:00Z,29.4412,-92.0613,10.0,2.309,280.0,,'11111222,11111222,99999999' 
WAVCIS,ioos:station:WAVCIS:CSI03:3,2017-03-01T13:00:00Z,29.4412,-92.0613,10.0,4.127,287.0,,'11111222,11111222,99999999' 
WAVCIS,ioos:station:WAVCIS:CSI03:3,2017-03-01T14:00:00Z,29.4412,-92.0613,10.0,3.611,291.0,,'11111222,11111222,99999999' 
WAVCIS,ioos:station:WAVCIS:CSI03:3,2017-03-01T15:00:00Z,29.4412,-92.0613,10.0,1.241,335.0,,'11111222,11111222,99999999' 
WAVCIS,ioos:station:WAVCIS:CSI03:3,2017-03-01T16:00:00Z,29.4412,-92.0613,10.0,2.635,34.0,,'11111222,11111222,99999999' 
WAVCIS,ioos:station:WAVCIS:CSI03:3,2017-03-01T17:00:00Z,29.4412,-92.0613,10.0,2.99,27.0,,'11111222,11111222,99999999' 
WAVCIS,ioos:station:WAVCIS:CSI03:3,2017-03-01T18:00:00Z,29.4412,-92.0613,10.0,1.124,344.0,,'11111222,11111222,99999999' 
WAVCIS,ioos:station:WAVCIS:CSI03:3,2017-03-01T19:00:00Z,29.4412,-92.0613,10.0,2.107,276.0,,'11111222,11111222,99999999' 
WAVCIS,ioos:station:WAVCIS:CSI03:3,2017-03-01T20:00:00Z,29.4412,-92.0613,10.0,2.271,283.0,,'11111222,11111222,99999999' 
WAVCIS,ioos:station:WAVCIS:CSI03:3,2017-03-01T21:00:00Z,29.4412,-92.0613,10.0,0.289,302.0,,'11111222,11111222,99999999' 
WAVCIS,ioos:station:WAVCIS:CSI03:3,2017-03-01T22:00:00Z,29.4412,-92.0613,10.0,1.376,303.0,,'11111222,11111222,99999999' 
WAVCIS,ioos:station:WAVCIS:CSI03:3,2017-03-01T23:00:00Z,29.4412,-92.0613,10.0,0.889,317.0,,'11111222,11111222,99999999' 
WAVCIS,ioos:station:WAVCIS:CSI03:3,2017-03-02T00:00:00Z,29.4412,-92.0613,10.0,3.847,334.0,,'11111222,11111222,99999999' 
WAVCIS,ioos:station:WAVCIS:CSI03:3,2017-03-02T01:00:00Z,29.4412,-92.0613,10.0,4.362,357.0,,'11111222,11111222,99999999' 
WAVCIS,ioos:station:WAVCIS:CSI03:3,2017-03-02T02:00:00Z,29.4412,-92.0613,10.0,3.986,14.0,,'11111222,11111222,99999999' 
WAVCIS,ioos:station:WAVCIS:CSI03:3,2017-03-02T03:00:00Z,29.4412,-92.0613,10.0,6.351,126.0,,'11111222,11111222,99999999' 
WAVCIS,ioos:station:WAVCIS:CSI03:3,2017-03-02T04:00:00Z,29.4412,-92.0613,10.0,9.01,98.0,,'11111222,11111222,99999999' 
WAVCIS,ioos:station:WAVCIS:CSI03:3,2017-03-02T05:00:00Z,29.4412,-92.0613,10.0,9.32,104.0,,'11111222,11111222,99999999' 
WAVCIS,ioos:station:WAVCIS:CSI03:3,2017-03-02T06:00:00Z,29.4412,-92.0613,10.0,9.4,120.0,,'11111222,11111222,99999999' 
WAVCIS,ioos:station:WAVCIS:CSI03:3,2017-03-02T07:00:00Z,29.4412,-92.0613,10.0,9.67,119.0,,'11111222,11111222,99999999' 
WAVCIS,ioos:station:WAVCIS:CSI03:3,2017-03-02T08:00:00Z,29.4412,-92.0613,10.0,9.29,118.0,,'11111222,11111222,99999999' 
WAVCIS,ioos:station:WAVCIS:CSI03:3,2017-03-02T09:00:00Z,29.4412,-92.0613,10.0,10.86,133.0,,'11111222,11111222,99999999' 
WAVCIS,ioos:station:WAVCIS:CSI03:3,2017-03-02T10:00:00Z,29.4412,-92.0613,10.0,11.24,133.0,,'11111222,11111222,99999999' 
WAVCIS,ioos:station:WAVCIS:CSI03:3,2017-03-02T11:00:00Z,29.4412,-92.0613,10.0,11.21,132.0,,'11111222,11111222,99999999' 
WAVCIS,ioos:station:WAVCIS:CSI03:3,2017-03-02T12:00:00Z,29.4412,-92.0613,10.0,12.02,134.0,,'11111222,11111222,99999999' 
WAVCIS,ioos:station:WAVCIS:CSI03:3,2017-03-02T13:00:00Z,29.4412,-92.0613,10.0,11.57,133.0,,'11111222,11111222,99999999' 
WAVCIS,ioos:station:WAVCIS:CSI03:3,2017-03-02T14:00:00Z,29.4412,-92.0613,10.0,11.55,134.0,,'11111222,11111222,99999999' 
WAVCIS,ioos:station:WAVCIS:CSI03:3,2017-03-02T15:00:00Z,29.4412,-92.0613,10.0,12.58,140.0,,'11111222,11111222,99999999' 
WAVCIS,ioos:station:WAVCIS:CSI03:3,2017-03-02T16:00:00Z,29.4412,-92.0613,10.0,12.08,143.0,,'11111222,11111222,99999999' 
WAVCIS,ioos:station:WAVCIS:CSI03:3,2017-03-02T17:00:00Z,29.4412,-92.0613,10.0,10.57,144.0,,'11111222,11111222,99999999' 
WAVCIS,ioos:station:WAVCIS:CSI03:3,2017-03-02T18:00:00Z,29.4412,-92.0613,10.0,8.66,137.0,,'11111222,11111222,99999999' 
WAVCIS,ioos:station:WAVCIS:CSI03:3,2017-03-02T19:00:00Z,29.4412,-92.0613,10.0,6.809,125.0,,'11111222,11111222,99999999' 
WAVCIS,ioos:station:WAVCIS:CSI03:3,2017-03-02T20:00:00Z,29.4412,-92.0613,10.0,6.612,132.0,,'11111222,11111222,99999999' 
WAVCIS,ioos:station:WAVCIS:CSI03:3,2017-03-02T21:00:00Z,29.4412,-92.0613,10.0,6.462,126.0,,'11111222,11111222,99999999' 
WAVCIS,ioos:station:WAVCIS:CSI03:3,2017-03-02T22:00:00Z,29.4412,-92.0613,10.0,7.09,143.0,,'11111222,11111222,99999999' 
WAVCIS,ioos:station:WAVCIS:CSI03:3,2017-03-02T23:00:00Z,29.4412,-92.0613,10.0,6.263,136.0,,'11111222,11111222,99999999' 
WAVCIS,ioos:station:WAVCIS:CSI03:3,2017-03-03T00:00:00Z,29.4412,-92.0613,10.0,7.4,135.0,,'11111222,11111222,99999999' 
WAVCIS,ioos:station:WAVCIS:CSI03:3,2017-03-03T01:00:00Z,29.4412,-92.0613,10.0,6.24,146.0,,'11111222,11111222,99999999' 
WAVCIS,ioos:station:WAVCIS:CSI03:3,2017-03-03T02:00:00Z,29.4412,-92.0613,10.0,5.804,146.0,,'11111222,11111222,99999999' 
WAVCIS,ioos:station:WAVCIS:CSI03:3,2017-03-03T03:00:00Z,29.4412,-92.0613,10.0,6.161,138.0,,'11111222,11111222,99999999' 
WAVCIS,ioos:station:WAVCIS:CSI03:3,2017-03-03T04:00:00Z,29.4412,-92.0613,10.0,7.36,132.0,,'11111222,11111222,99999999' 
WAVCIS,ioos:station:WAVCIS:CSI03:3,2017-03-03T05:00:00Z,29.4412,-92.0613,10.0,7.37,131.0,,'11111222,11111222,99999999' 
WAVCIS,ioos:station:WAVCIS:CSI03:3,2017-03-03T06:00:00Z,29.4412,-92.0613,10.0,9.36,135.0,,'11111222,11111222,99999999' 
WAVCIS,ioos:station:WAVCIS:CSI03:3,2017-03-03T07:00:00Z,29.4412,-92.0613,10.0,10.52,137.0,,'11111222,11111222,99999999' 
WAVCIS,ioos:station:WAVCIS:CSI03:3,2017-03-03T08:00:00Z,29.4412,-92.0613,10.0,9.97,136.0,,'11111222,11111222,99999999' 
WAVCIS,ioos:station:WAVCIS:CSI03:3,2017-03-03T09:00:00Z,29.4412,-92.0613,10.0,10.29,141.0,,'11111222,11111222,99999999' 
WAVCIS,ioos:station:WAVCIS:CSI03:3,2017-03-03T10:00:00Z,29.4412,-92.0613,10.0,10.52,147.0,,'11111222,11111222,99999999' 
WAVCIS,ioos:station:WAVCIS:CSI03:3,2017-03-03T11:00:00Z,29.4412,-92.0613,10.0,10.19,150.0,,'11111222,11111222,99999999' 
WAVCIS,ioos:station:WAVCIS:CSI03:3,2017-03-03T12:00:00Z,29.4412,-92.0613,10.0,9.83,154.0,,'11111222,11111222,99999999' 
WAVCIS,ioos:station:WAVCIS:CSI03:3,2017-03-03T13:00:00Z,29.4412,-92.0613,10.0,9.36,157.0,,'11111222,11111222,99999999' 
WAVCIS,ioos:station:WAVCIS:CSI03:3,2017-03-03T14:00:00Z,29.4412,-92.0613,10.0,9.76,163.0,,'11111222,11111222,99999999' 
WAVCIS,ioos:station:WAVCIS:CSI03:3,2017-03-03T15:00:00Z,29.4412,-92.0613,10.0,10.32,168.0,,'11111222,11111222,99999999' 
WAVCIS,ioos:station:WAVCIS:CSI03:3,2017-03-03T16:00:00Z,29.4412,-92.0613,10.0,10.51,155.0,,'11111222,11111222,99999999' 
WAVCIS,ioos:station:WAVCIS:CSI03:3,2017-03-03T17:00:00Z,29.4412,-92.0613,10.0,9.93,159.0,,'11111222,11111222,99999999' 
WAVCIS,ioos:station:WAVCIS:CSI03:3,2017-03-03T18:00:00Z,29.4412,-92.0613,10.0,10.07,180.0,,'11111222,11111222,99999999' 
WAVCIS,ioos:station:WAVCIS:CSI03:3,2017-03-03T19:00:00Z,29.4412,-92.0613,10.0,8.02,194.0,,'11111222,11111222,99999999' 
WAVCIS,ioos:station:WAVCIS:CSI03:3,2017-03-03T20:00:00Z,29.4412,-92.0613,10.0,7.9,195.0,,'11111222,11111222,99999999' 
WAVCIS,ioos:station:WAVCIS:CSI03:3,2017-03-03T21:00:00Z,29.4412,-92.0613,10.0,7.28,206.0,,'11111222,11111222,99999999' 
WAVCIS,ioos:station:WAVCIS:CSI03:3,2017-03-03T22:00:00Z,29.4412,-92.0613,10.0,7.61,203.0,,'11111222,11111222,99999999' 
WAVCIS,ioos:station:WAVCIS:CSI03:3,2017-03-03T23:00:00Z,29.4412,-92.0613,10.0,6.905,207.0,,'11111222,11111222,99999999' 
WAVCIS,ioos:station:WAVCIS:CSI03:3,2017-03-04T00:00:00Z,29.4412,-92.0613,10.0,6.69,212.0,,'11111222,11111222,99999999' 
WAVCIS,ioos:station:WAVCIS:CSI03:3,2017-03-04T01:00:00Z,29.4412,-92.0613,10.0,6.689,219.0,,'11111222,11111222,99999999' 
WAVCIS,ioos:station:WAVCIS:CSI03:3,2017-03-04T02:00:00Z,29.4412,-92.0613,10.0,6.225,236.0,,'11111222,11111222,99999999' 
WAVCIS,ioos:station:WAVCIS:CSI03:3,2017-03-04T03:00:00Z,29.4412,-92.0613,10.0,6.4,230.0,,'11111222,11111222,99999999' 
WAVCIS,ioos:station:WAVCIS:CSI03:3,2017-03-04T04:00:00Z,29.4412,-92.0613,10.0,6.126,223.0,,'11111222,11111222,99999999' 
WAVCIS,ioos:station:WAVCIS:CSI03:3,2017-03-04T05:00:00Z,29.4412,-92.0613,10.0,6.876,219.0,,'11111222,11111222,99999999' 
WAVCIS,ioos:station:WAVCIS:CSI03:3,2017-03-04T06:00:00Z,29.4412,-92.0613,10.0,8.42,208.0,,'11111222,11111222,99999999' 
WAVCIS,ioos:station:WAVCIS:CSI03:3,2017-03-04T07:00:00Z,29.4412,-92.0613,10.0,7.77,200.0,,'11111222,11111222,99999999' 
WAVCIS,ioos:station:WAVCIS:CSI03:3,2017-03-04T08:00:00Z,29.4412,-92.0613,10.0,6.678,190.0,,'11111222,11111222,99999999' 
WAVCIS,ioos:station:WAVCIS:CSI03:3,2017-03-04T09:00:00Z,29.4412,-92.0613,10.0,7.32,175.0,,'11111222,11111222,99999999' 
WAVCIS,ioos:station:WAVCIS:CSI03:3,2017-03-04T10:00:00Z,29.4412,-92.0613,10.0,7.31,174.0,,'11111222,11111222,99999999' 
WAVCIS,ioos:station:WAVCIS:CSI03:3,2017-03-04T11:00:00Z,29.4412,-92.0613,10.0,8.07,183.0,,'11111222,11111222,99999999' 
WAVCIS,ioos:station:WAVCIS:CSI03:3,2017-03-04T12:00:00Z,29.4412,-92.0613,10.0,9.57,190.0,,'11111222,11111222,99999999' 
WAVCIS,ioos:station:WAVCIS:CSI03:3,2017-03-04T13:00:00Z,29.4412,-92.0613,10.0,10.91,190.0,,'11111222,11111222,99999999' 
WAVCIS,ioos:station:WAVCIS:CSI03:3,2017-03-04T14:00:00Z,29.4412,-92.0613,10.0,10.66,188.0,,'11111222,11111222,99999999' 
WAVCIS,ioos:station:WAVCIS:CSI03:3,2017-03-04T15:00:00Z,29.4412,-92.0613,10.0,10.59,189.0,,'11111222,11111222,99999999' 
WAVCIS,ioos:station:WAVCIS:CSI03:3,2017-03-04T16:00:00Z,29.4412,-92.0613,10.0,10.11,189.0,,'11111222,11111222,99999999' 
WAVCIS,ioos:station:WAVCIS:CSI03:3,2017-03-04T17:00:00Z,29.4412,-92.0613,10.0,8.84,187.0,,'11111222,11111222,99999999' 
WAVCIS,ioos:station:WAVCIS:CSI03:3,2017-03-04T18:00:00Z,29.4412,-92.0613,10.0,9.75,194.0,,'11111222,11111222,99999999' 
WAVCIS,ioos:station:WAVCIS:CSI03:3,2017-03-04T19:00:00Z,29.4412,-92.0613,10.0,10.04,194.0,,'11111222,11111222,99999999' 
WAVCIS,ioos:station:WAVCIS:CSI03:3,2017-03-04T20:00:00Z,29.4412,-92.0613,10.0,9.13,197.0,,'11111222,11111222,99999999' 
WAVCIS,ioos:station:WAVCIS:CSI03:3,2017-03-04T21:00:00Z,29.4412,-92.0613,10.0,9.84,195.0,,'11111222,11111222,99999999' 
WAVCIS,ioos:station:WAVCIS:CSI03:3,2017-03-04T22:00:00Z,29.4412,-92.0613,10.0,9.35,193.0,,'11111222,11111222,99999999' 
WAVCIS,ioos:station:WAVCIS:CSI03:3,2017-03-04T23:00:00Z,29.4412,-92.0613,10.0,8.39,189.0,,'11111222,11111222,99999999' 
WAVCIS,ioos:station:WAVCIS:CSI03:3,2017-03-05T00:00:00Z,29.4412,-92.0613,10.0,7.78,187.0,,'11111222,11111222,99999999' 
WAVCIS,ioos:station:WAVCIS:CSI03:3,2017-03-05T01:00:00Z,29.4412,-92.0613,10.0,8.28,191.0,,'11111222,11111222,99999999' 
WAVCIS,ioos:station:WAVCIS:CSI03:3,2017-03-05T02:00:00Z,29.4412,-92.0613,10.0,9.62,194.0,,'11111222,11111222,99999999' 
WAVCIS,ioos:station:WAVCIS:CSI03:3,2017-03-05T03:00:00Z,29.4412,-92.0613,10.0,10.33,193.0,,'11111222,11111222,99999999' 
WAVCIS,ioos:station:WAVCIS:CSI03:3,2017-03-05T04:00:00Z,29.4412,-92.0613,10.0,10.98,187.0,,'11111222,11111222,99999999' 
WAVCIS,ioos:station:WAVCIS:CSI03:3,2017-03-05T05:00:00Z,29.4412,-92.0613,10.0,10.66,188.0,,'11111222,11111222,99999999' 
WAVCIS,ioos:station:WAVCIS:CSI03:3,2017-03-05T06:00:00Z,29.4412,-92.0613,10.0,11.19,192.0,,'11111222,11111222,99999999' 
WAVCIS,ioos:station:WAVCIS:CSI03:3,2017-03-05T07:00:00Z,29.4412,-92.0613,10.0,12.4,196.0,,'11111222,11111222,99999999' 
WAVCIS,ioos:station:WAVCIS:CSI03:3,2017-03-05T08:00:00Z,29.4412,-92.0613,10.0,10.3,195.0,,'11111222,11111222,99999999' 
WAVCIS,ioos:station:WAVCIS:CSI03:3,2017-03-05T09:00:00Z,29.4412,-92.0613,10.0,9.78,195.0,,'11111222,11111222,99999999' 
WAVCIS,ioos:station:WAVCIS:CSI03:3,2017-03-05T10:00:00Z,29.4412,-92.0613,10.0,9.48,196.0,,'11111222,11111222,99999999' 
WAVCIS,ioos:station:WAVCIS:CSI03:3,2017-03-05T11:00:00Z,29.4412,-92.0613,10.0,10.25,199.0,,'11111222,11111222,99999999' 
WAVCIS,ioos:station:WAVCIS:CSI03:3,2017-03-05T12:00:00Z,29.4412,-92.0613,10.0,8.23,196.0,,'11111222,11111222,99999999' 
WAVCIS,ioos:station:WAVCIS:CSI03:3,2017-03-05T13:00:00Z,29.4412,-92.0613,10.0,7.18,181.0,,'11111222,11111222,99999999' 
WAVCIS,ioos:station:WAVCIS:CSI03:3,2017-03-05T14:00:00Z,29.4412,-92.0613,10.0,6.784,181.0,,'11111222,11111222,99999999' 
WAVCIS,ioos:station:WAVCIS:CSI03:3,2017-03-05T15:00:00Z,29.4412,-92.0613,10.0,7.7,183.0,,'11111222,11111222,99999999' 
WAVCIS,ioos:station:WAVCIS:CSI03:3,2017-03-05T16:00:00Z,29.4412,-92.0613,10.0,7.57,191.0,,'11111222,11111222,99999999' 
WAVCIS,ioos:station:WAVCIS:CSI03:3,2017-03-05T17:00:00Z,29.4412,-92.0613,10.0,9.12,190.0,,'11111222,11111222,99999999' 
WAVCIS,ioos:station:WAVCIS:CSI03:3,2017-03-05T18:00:00Z,29.4412,-92.0613,10.0,8.57,201.0,,'11111222,11111222,99999999' 
WAVCIS,ioos:station:WAVCIS:CSI03:3,2017-03-05T19:00:00Z,29.4412,-92.0613,10.0,9.7,213.0,,'11111222,11111222,99999999' 
WAVCIS,ioos:station:WAVCIS:CSI03:3,2017-03-05T20:00:00Z,29.4412,-92.0613,10.0,8.33,217.0,,'11111222,11111222,99999999' 
WAVCIS,ioos:station:WAVCIS:CSI03:3,2017-03-05T21:00:00Z,29.4412,-92.0613,10.0,7.55,206.0,,'11111222,11111222,99999999' 
WAVCIS,ioos:station:WAVCIS:CSI03:3,2017-03-05T22:00:00Z,29.4412,-92.0613,10.0,6.607,205.0,,'11111222,11111222,99999999' 
WAVCIS,ioos:station:WAVCIS:CSI03:3,2017-03-05T23:00:00Z,29.4412,-92.0613,10.0,9.0,218.0,,'11111222,11111222,99999999' 
WAVCIS,ioos:station:WAVCIS:CSI03:3,2017-03-06T00:00:00Z,29.4412,-92.0613,10.0,8.78,226.0,,'11111222,11111222,99999999' 
WAVCIS,ioos:station:WAVCIS:CSI03:3,2017-03-06T01:00:00Z,29.4412,-92.0613,10.0,8.33,231.0,,'11111222,11111222,99999999' 
WAVCIS,ioos:station:WAVCIS:CSI03:3,2017-03-06T02:00:00Z,29.4412,-92.0613,10.0,8.84,235.0,,'11111222,11111222,99999999' 
WAVCIS,ioos:station:WAVCIS:CSI03:3,2017-03-06T03:00:00Z,29.4412,-92.0613,10.0,8.89,237.0,,'11111222,11111222,99999999' 
WAVCIS,ioos:station:WAVCIS:CSI03:3,2017-03-06T04:00:00Z,29.4412,-92.0613,10.0,9.15,239.0,,'11111222,11111222,99999999' 
WAVCIS,ioos:station:WAVCIS:CSI03:3,2017-03-06T05:00:00Z,29.4412,-92.0613,10.0,8.8,234.0,,'11111222,11111222,99999999' 
WAVCIS,ioos:station:WAVCIS:CSI03:3,2017-03-06T06:00:00Z,29.4412,-92.0613,10.0,7.41,235.0,,'11111222,11111222,99999999' 
WAVCIS,ioos:station:WAVCIS:CSI03:3,2017-03-06T07:00:00Z,29.4412,-92.0613,10.0,6.426,231.0,,'11111222,11111222,99999999' 
WAVCIS,ioos:station:WAVCIS:CSI03:3,2017-03-06T08:00:00Z,29.4412,-92.0613,10.0,6.759,230.0,,'11111222,11111222,99999999' 
WAVCIS,ioos:station:WAVCIS:CSI03:3,2017-03-06T09:00:00Z,29.4412,-92.0613,10.0,5.721,230.0,,'11111222,11111222,99999999' 
WAVCIS,ioos:station:WAVCIS:CSI03:3,2017-03-06T10:00:00Z,29.4412,-92.0613,10.0,5.406,228.0,,'11111222,11111222,99999999' 
WAVCIS,ioos:station:WAVCIS:CSI03:3,2017-03-06T11:00:00Z,29.4412,-92.0613,10.0,6.116,222.0,,'11111222,11111222,99999999' 
WAVCIS,ioos:station:WAVCIS:CSI03:3,2017-03-06T12:00:00Z,29.4412,-92.0613,10.0,6.21,222.0,,'11111222,11111222,99999999' 
WAVCIS,ioos:station:WAVCIS:CSI03:3,2017-03-06T13:00:00Z,29.4412,-92.0613,10.0,6.919,229.0,,'11111222,11111222,99999999' 
WAVCIS,ioos:station:WAVCIS:CSI03:3,2017-03-06T14:00:00Z,29.4412,-92.0613,10.0,6.919,237.0,,'11111222,11111222,99999999' 
WAVCIS,ioos:station:WAVCIS:CSI03:3,2017-03-06T15:00:00Z,29.4412,-92.0613,10.0,7.13,234.0,,'11111222,11111222,99999999' 
WAVCIS,ioos:station:WAVCIS:CSI03:3,2017-03-06T16:00:00Z,29.4412,-92.0613,10.0,7.36,236.0,,'11111222,11111222,99999999' 
WAVCIS,ioos:station:WAVCIS:CSI03:3,2017-03-06T17:00:00Z,29.4412,-92.0613,10.0,8.25,241.0,,'11111222,11111222,99999999' 
WAVCIS,ioos:station:WAVCIS:CSI03:3,2017-03-06T18:00:00Z,29.4412,-92.0613,10.0,6.183,228.0,,'11111222,11111222,99999999' 
WAVCIS,ioos:station:WAVCIS:CSI03:3,2017-03-06T19:00:00Z,29.4412,-92.0613,10.0,6.455,223.0,,'11111222,11111222,99999999' 
WAVCIS,ioos:station:WAVCIS:CSI03:3,2017-03-06T20:00:00Z,29.4412,-92.0613,10.0,6.431,228.0,,'11111222,11111222,99999999' 
WAVCIS,ioos:station:WAVCIS:CSI03:3,2017-03-06T21:00:00Z,29.4412,-92.0613,10.0,7.23,233.0,,'11111222,11111222,99999999' 
WAVCIS,ioos:station:WAVCIS:CSI03:3,2017-03-06T22:00:00Z,29.4412,-92.0613,10.0,7.29,231.0,,'11111222,11111222,99999999' 
WAVCIS,ioos:station:WAVCIS:CSI03:3,2017-03-06T23:00:00Z,29.4412,-92.0613,10.0,7.59,231.0,,'11111222,11111222,99999999' 
WAVCIS,ioos:station:WAVCIS:CSI03:3,2017-03-07T00:00:00Z,29.4412,-92.0613,10.0,8.07,228.0,,'11111222,11111222,99999999' 
WAVCIS,ioos:station:WAVCIS:CSI03:3,2017-03-07T01:00:00Z,29.4412,-92.0613,10.0,7.82,233.0,,'11111222,11111222,99999999' 
WAVCIS,ioos:station:WAVCIS:CSI03:3,2017-03-07T02:00:00Z,29.4412,-92.0613,10.0,7.96,235.0,,'11111222,11111222,99999999' 
WAVCIS,ioos:station:WAVCIS:CSI03:3,2017-03-07T03:00:00Z,29.4412,-92.0613,10.0,7.98,241.0,,'11111222,11111222,99999999' 
WAVCIS,ioos:station:WAVCIS:CSI03:3,2017-03-07T04:00:00Z,29.4412,-92.0613,10.0,8.47,244.0,,'11111222,11111222,99999999' 
WAVCIS,ioos:station:WAVCIS:CSI03:3,2017-03-07T05:00:00Z,29.4412,-92.0613,10.0,8.46,247.0,,'11111222,11111222,99999999' 
WAVCIS,ioos:station:WAVCIS:CSI03:3,2017-03-07T06:00:00Z,29.4412,-92.0613,10.0,8.13,256.0,,'11111222,11111222,99999999' 
WAVCIS,ioos:station:WAVCIS:CSI03:3,2017-03-07T07:00:00Z,29.4412,-92.0613,10.0,10.26,259.0,,'11111222,11111222,99999999' 
WAVCIS,ioos:station:WAVCIS:CSI03:3,2017-03-07T08:00:00Z,29.4412,-92.0613,10.0,9.61,264.0,,'11111222,11111222,99999999' 
WAVCIS,ioos:station:WAVCIS:CSI03:3,2017-03-07T09:00:00Z,29.4412,-92.0613,10.0,7.16,256.0,,'11111222,11111222,99999999' 
WAVCIS,ioos:station:WAVCIS:CSI03:3,2017-03-07T10:00:00Z,29.4412,-92.0613,10.0,6.676,256.0,,'11111222,11111222,99999999' 
WAVCIS,ioos:station:WAVCIS:CSI03:3,2017-03-07T11:00:00Z,29.4412,-92.0613,10.0,4.817,252.0,,'11111222,11111222,99999999' 
WAVCIS,ioos:station:WAVCIS:CSI03:3,2017-03-07T12:00:00Z,29.4412,-92.0613,10.0,6.775,253.0,,'11111222,11111222,99999999' 
WAVCIS,ioos:station:WAVCIS:CSI03:3,2017-03-07T13:00:00Z,29.4412,-92.0613,10.0,6.747,270.0,,'11111222,11111222,99999999' 
WAVCIS,ioos:station:WAVCIS:CSI03:3,2017-03-07T14:00:00Z,29.4412,-92.0613,10.0,2.859,273.0,,'11111222,11111222,99999999' 
WAVCIS,ioos:station:WAVCIS:CSI03:3,2017-03-07T15:00:00Z,29.4412,-92.0613,10.0,4.038,270.0,,'11111222,11111222,99999999' 
WAVCIS,ioos:station:WAVCIS:CSI03:3,2017-03-07T16:00:00Z,29.4412,-92.0613,10.0,4.125,251.0,,'11111222,11111222,99999999' 
WAVCIS,ioos:station:WAVCIS:CSI03:3,2017-03-07T17:00:00Z,29.4412,-92.0613,10.0,3.494,270.0,,'11111222,11111222,99999999' 
WAVCIS,ioos:station:WAVCIS:CSI03:3,2017-03-07T18:00:00Z,29.4412,-92.0613,10.0,4.662,266.0,,'11111222,11111222,99999999' 
WAVCIS,ioos:station:WAVCIS:CSI03:3,2017-03-07T19:00:00Z,29.4412,-92.0613,10.0,5.342,272.0,,'11111222,11111222,99999999' 
WAVCIS,ioos:station:WAVCIS:CSI03:3,2017-03-07T20:00:00Z,29.4412,-92.0613,10.0,5.281,272.0,,'11111222,11111222,99999999' 
WAVCIS,ioos:station:WAVCIS:CSI03:3,2017-03-07T21:00:00Z,29.4412,-92.0613,10.0,3.352,276.0,,'11111222,11111222,99999999' 
WAVCIS,ioos:station:WAVCIS:CSI03:3,2017-03-07T22:00:00Z,29.4412,-92.0613,10.0,3.136,287.0,,'11111222,11111222,99999999' 
WAVCIS,ioos:station:WAVCIS:CSI03:3,2017-03-07T23:00:00Z,29.4412,-92.0613,10.0,3.739,290.0,,'11111222,11111222,99999999' 
WAVCIS,ioos:station:WAVCIS:CSI03:3,2017-03-08T00:00:00Z,29.4412,-92.0613,10.0,1.986,300.0,,'11111222,11111222,99999999' 
WAVCIS,ioos:station:WAVCIS:CSI03:3,2017-03-08T01:00:00Z,29.4412,-92.0613,10.0,0.963,310.0,,'11111222,11111222,99999999' 
WAVCIS,ioos:station:WAVCIS:CSI03:3,2017-03-08T02:00:00Z,29.4412,-92.0613,10.0,3.231,337.0,,'11111222,11111222,99999999' 
WAVCIS,ioos:station:WAVCIS:CSI03:3,2017-03-08T03:00:00Z,29.4412,-92.0613,10.0,7.6,134.0,,'11111222,11111222,99999999' 
WAVCIS,ioos:station:WAVCIS:CSI03:3,2017-03-08T04:00:00Z,29.4412,-92.0613,10.0,8.23,107.0,,'11111222,11111222,99999999' 
WAVCIS,ioos:station:WAVCIS:CSI03:3,2017-03-08T05:00:00Z,29.4412,-92.0613,10.0,6.654,133.0,,'11111222,11111222,99999999' 
WAVCIS,ioos:station:WAVCIS:CSI03:3,2017-03-08T06:00:00Z,29.4412,-92.0613,10.0,8.04,134.0,,'11111222,11111222,99999999' 
WAVCIS,ioos:station:WAVCIS:CSI03:3,2017-03-08T07:00:00Z,29.4412,-92.0613,10.0,7.88,144.0,,'11111222,11111222,99999999' 
WAVCIS,ioos:station:WAVCIS:CSI03:3,2017-03-08T08:00:00Z,29.4412,-92.0613,10.0,9.04,145.0,,'11111222,11111222,99999999' 
WAVCIS,ioos:station:WAVCIS:CSI03:3,2017-03-08T09:00:00Z,29.4412,-92.0613,10.0,7.93,146.0,,'11111222,11111222,99999999' 
WAVCIS,ioos:station:WAVCIS:CSI03:3,2017-03-08T10:00:00Z,29.4412,-92.0613,10.0,8.93,151.0,,'11111222,11111222,99999999' 
WAVCIS,ioos:station:WAVCIS:CSI03:3,2017-03-08T11:00:00Z,29.4412,-92.0613,10.0,9.44,153.0,,'11111222,11111222,99999999' 
WAVCIS,ioos:station:WAVCIS:CSI03:3,2017-03-08T12:00:00Z,29.4412,-92.0613,10.0,8.94,151.0,,'11111222,11111222,99999999' 
WAVCIS,ioos:station:WAVCIS:CSI03:3,2017-03-08T13:00:00Z,29.4412,-92.0613,10.0,8.77,149.0,,'11111222,11111222,99999999' 
WAVCIS,ioos:station:WAVCIS:CSI03:3,2017-03-08T14:00:00Z,29.4412,-92.0613,10.0,9.91,157.0,,'11111222,11111222,99999999' 
WAVCIS,ioos:station:WAVCIS:CSI03:3,2017-03-08T15:00:00Z,29.4412,-92.0613,10.0,9.83,159.0,,'11111222,11111222,99999999' 
WAVCIS,ioos:station:WAVCIS:CSI03:3,2017-03-08T16:00:00Z,29.4412,-92.0613,10.0,8.81,184.0,,'11111222,11111222,99999999' 
WAVCIS,ioos:station:WAVCIS:CSI03:3,2017-03-08T17:00:00Z,29.4412,-92.0613,10.0,8.5,186.0,,'11111222,11111222,99999999' 
WAVCIS,ioos:station:WAVCIS:CSI03:3,2017-03-08T18:00:00Z,29.4412,-92.0613,10.0,7.78,194.0,,'11111222,11111222,99999999' 
WAVCIS,ioos:station:WAVCIS:CSI03:3,2017-03-08T19:00:00Z,29.4412,-92.0613,10.0,6.879,196.0,,'11111222,11111222,99999999' 
WAVCIS,ioos:station:WAVCIS:CSI03:3,2017-03-08T20:00:00Z,29.4412,-92.0613,10.0,7.46,204.0,,'11111222,11111222,99999999' 
WAVCIS,ioos:station:WAVCIS:CSI03:3,2017-03-08T21:00:00Z,29.4412,-92.0613,10.0,6.121,202.0,,'11111222,11111222,99999999' 
WAVCIS,ioos:station:WAVCIS:CSI03:3,2017-03-08T22:00:00Z,29.4412,-92.0613,10.0,7.2,208.0,,'11111222,11111222,99999999' 
WAVCIS,ioos:station:WAVCIS:CSI03:3,2017-03-08T23:00:00Z,29.4412,-92.0613,10.0,7.12,204.0,,'11111222,11111222,99999999' 
WAVCIS,ioos:station:WAVCIS:CSI03:3,2017-03-09T00:00:00Z,29.4412,-92.0613,10.0,5.89,198.0,,'11111222,11111222,99999999' 
WAVCIS,ioos:station:WAVCIS:CSI03:3,2017-03-09T01:00:00Z,29.4412,-92.0613,10.0,6.729,197.0,,'11111222,11111222,99999999' 
WAVCIS,ioos:station:WAVCIS:CSI03:3,2017-03-09T02:00:00Z,29.4412,-92.0613,10.0,7.14,211.0,,'11111222,11111222,99999999' 
WAVCIS,ioos:station:WAVCIS:CSI03:3,2017-03-09T03:00:00Z,29.4412,-92.0613,10.0,6.619,223.0,,'11111222,11111222,99999999' 
WAVCIS,ioos:station:WAVCIS:CSI03:3,2017-03-09T04:00:00Z,29.4412,-92.0613,10.0,5.391,217.0,,'11111222,11111222,99999999' 
WAVCIS,ioos:station:WAVCIS:CSI03:3,2017-03-09T05:00:00Z,29.4412,-92.0613,10.0,6.352,222.0,,'11111222,11111222,99999999' 